Date,TemperatureHighF,TemperatureAvgF,TemperatureLowF,DewpointHighF,DewpointAvgF,DewpointLowF,HumidityHigh,HumidityAvg,HumidityLow,PressureMaxIn,PressureMinIn,WindSpeedMaxMPH,WindSpeedAvgMPH,GustSpeedMaxMPH,PrecipitationSumIn
2013-7-1,71,68,66,65,64,62,90,85,77,29.99,29.83,17,3,18,0.02
2013-7-2,75,68,63,67,62,60,90,83,75,30.03,29.94,11,2,17,0.00
2013-7-3,86,74,64,76,68,61,93,84,65,30.09,30.02,7,0,7,0.39
2013-7-4,82,75,70,74,70,68,93,85,71,30.14,30.07,5,0,6,0.01
2013-7-5,79,73,70,73,68,66,93,85,72,30.10,30.05,10,1,12,0.30
2013-7-6,83,75,69,74,70,66,93,85,67,30.12,29.98,6,0,9,0.23
2013-7-7,78,73,70,71,68,65,93,84,71,30.03,29.94,11,1,12,0.01
2013-7-8,85,74,68,74,68,65,93,83,64,30.05,29.96,7,0,10,0.94
2013-7-9,82,75,70,75,71,68,94,88,71,30.01,29.87,7,1,10,0.10
2013-7-10,87,75,69,78,71,66,93,86,69,29.89,29.68,16,1,16,0.44
2013-7-11,74,71,68,68,61,58,89,72,63,30.00,29.86,7,1,9,0.00
2013-7-12,78,71,62,68,64,59,92,80,65,30.11,29.99,13,1,14,0.00
2013-7-13,80,72,62,71,65,58,90,78,63,30.19,30.09,12,1,12,0.00
2013-7-14,88,78,68,75,70,65,93,78,59,30.24,30.19,9,1,11,0.00
2013-7-15,87,79,72,76,72,69,92,80,66,30.27,30.20,6,1,10,0.00
2013-7-16,88,80,74,77,74,71,92,81,65,30.26,30.19,5,1,7,0.00
2013-7-17,89,82,74,78,74,72,92,78,61,30.23,30.10,7,1,12,0.00
2013-7-18,90,82,76,78,74,72,90,78,59,30.11,29.94,9,1,11,0.00
2013-7-19,93,83,71,77,73,66,89,72,51,29.94,29.73,13,2,16,0.22
2013-7-20,80,73,69,74,69,66,93,86,68,29.88,29.73,9,1,12,1.37
2013-7-21,81,74,67,72,67,62,93,79,59,29.95,29.87,10,1,13,0.00
2013-7-22,79,72,64,72,67,61,92,86,71,29.94,29.73,6,0,7,0.16
2013-7-23,82,72,66,72,68,59,94,85,65,29.77,29.61,9,1,14,0.47
2013-7-24,71,65,57,60,54,51,88,68,51,30.02,29.77,11,1,14,0.00
2013-7-25,76,65,53,58,53,49,90,68,43,30.08,30.01,10,1,12,0.00
2013-7-26,78,68,56,65,58,53,90,74,52,30.08,29.93,7,0,8,0.00
2013-7-27,71,67,64,67,63,59,90,86,79,29.94,29.76,4,0,6,0.17
2013-7-28,71,66,60,64,56,48,91,74,49,29.97,29.79,10,1,12,0.45
2013-7-29,72,64,58,60,56,51,89,76,55,30.16,29.96,11,1,12,0.03
2013-7-30,75,66,56,65,58,53,93,78,56,30.21,30.13,6,0,9,0.00
2013-7-31,82,69,59,67,62,56,91,78,55,30.13,29.87,6,0,7,0.00